Theta_e
324 323 322 321 321 321 323 327 330 334 336 337 337 337 336 336 335 335 335 334 332 333 332 331 328 329 328 327 326 325 328 330
324 322 322 322 321 321 320 322 325 330 333 335 336 336 336 336 335 335 335 335 333 333 332 329 329 328 327 327 327 328 331 332
323 322 321 321 321 320 320 320 322 325 329 332 335 335 336 335 334 335 335 335 334 333 331 330 329 327 326 326 327 330 330 330
323 322 321 321 321 320 320 320 320 322 326 329 332 333 334 334 333 334 335 335 335 333 332 331 330 327 325 328 328 329 329 331
322 322 322 322 320 319 319 320 319 320 322 326 329 331 332 333 333 334 335 335 335 334 332 331 331 328 326 326 326 328 327 330
324 324 323 322 322 320 319 319 319 319 319 321 325 329 330 331 332 333 334 335 335 334 333 332 331 328 326 326 327 328 327 330
335 335 333 330 326 322 320 320 320 319 319 319 321 324 328 329 331 332 334 334 335 335 333 332 330 329 327 326 327 326 326 328
328 337 337 337 334 327 323 321 320 321 320 320 320 321 324 328 329 331 333 334 334 335 333 332 330 329 328 326 326 327 326 327
315 319 329 337 337 335 333 333 330 322 321 321 321 321 322 327 328 329 331 332 334 334 333 332 330 330 327 327 327 327 325 326
313 314 315 322 337 336 335 334 335 329 322 321 322 321 323 325 327 328 330 331 333 333 333 332 330 329 328 327 327 326 326 326
313 314 314 314 317 334 335 333 334 335 328 322 322 322 323 325 325 326 329 330 331 332 332 331 330 329 328 327 326 326 325 323
313 313 314 315 315 323 333 333 332 336 334 327 323 323 324 323 326 326 329 331 331 332 332 331 330 329 328 327 326 326 325 324
313 314 313 314 314 322 330 334 328 329 335 333 326 324 326 326 327 326 329 331 331 332 332 330 331 329 328 327 327 327 326 326
314 315 313 313 314 316 317 323 328 324 332 334 332 326 328 328 328 327 327 331 330 333 333 330 329 329 328 327 327 326 325 326
316 313 312 313 314 316 323 327 331 333 330 335 334 329 330 331 329 329 329 333 331 333 334 333 329 328 326 327 325 325 326 325
320 316 313 312 314 317 320 322 323 322 323 330 334 333 332 334 331 330 330 332 331 331 333 332 330 327 327 327 326 325 324 324
325 322 318 314 315 316 316 318 322 322 321 323 333 331 330 335 334 331 329 327 329 330 331 332 329 328 327 326 327 325 324 324
320 325 324 318 325 317 318 317 319 325 328 326 332 332 331 332 332 329 326 326 330 332 331 330 328 328 328 329 327 325 325 324
320 322 326 323 323 325 318 322 322 323 324 325 331 331 331 332 331 328 326 324 327 325 329 330 326 327 327 326 328 326 325 324
321 321 324 327 328 330 329 330 326 326 329 332 331 330 328 328 331 327 325 326 326 326 325 329 325 325 326 325 324 326 326 324
Wind_Speed
27 27 25 23 22 21 22 22 22 22 22 21 21 20 19 19 19 18 17 16 16 16 17 17 17 17 15 13 13 13 13 15
30 28 26 25 23 22 20 21 21 22 22 22 22 21 21 20 20 20 19 18 18 18 17 18 19 16 15 15 14 13 15 16
30 29 28 26 24 22 21 20 20 21 22 23 23 23 22 22 22 21 20 19 19 18 19 19 19 17 18 17 15 16 16 17
30 29 28 25 24 22 22 22 21 21 22 23 24 24 24 23 22 22 21 20 20 19 20 21 21 21 20 19 18 17 16 16
29 28 27 25 24 23 23 23 21 21 21 23 24 25 25 24 24 24 23 22 22 22 23 23 22 23 22 21 19 18 16 16
29 29 28 27 26 26 24 23 23 21 21 22 24 26 26 26 26 25 25 24 24 24 26 25 25 25 22 19 20 18 19 20
30 31 30 30 29 29 28 27 25 24 22 23 23 25 26 26 26 26 26 25 26 25 27 27 26 26 22 23 24 23 22 20
32 36 33 33 33 32 30 29 29 28 26 24 23 24 25 26 26 27 27 26 26 25 26 29 28 27 25 25 26 23 23 25
31 31 38 42 38 34 32 30 31 33 30 28 26 25 25 26 26 26 26 26 26 26 24 29 30 29 27 27 26 23 21 29
31 34 36 40 46 42 39 34 34 32 32 31 30 27 27 26 26 26 26 26 27 27 26 27 28 28 28 28 30 23 20 25
27 28 35 42 43 49 43 37 34 32 32 34 33 30 29 28 27 26 25 27 28 28 28 27 28 32 31 30 30 26 21 14
29 29 31 35 46 48 44 40 38 35 33 34 34 34 31 29 28 26 26 27 28 28 28 27 28 34 33 32 28 29 26 22
29 29 30 29 43 46 46 46 41 40 38 34 35 35 33 32 30 27 27 28 28 27 27 26 27 32 32 29 28 25 28 28
30 28 29 31 35 45 43 44 47 43 42 37 33 37 35 34 32 31 29 29 27 28 29 27 28 28 31 22 16 27 28 31
21 26 29 31 33 37 43 45 46 41 42 40 36 36 36 36 33 31 29 30 30 29 30 29 28 30 31 23 11 12 24 33
21 24 28 30 33 36 43 46 47 44 44 42 39 34 37 38 34 32 31 30 31 30 29 28 28 30 28 33 26 15 14 11
22 22 26 33 34 37 35 40 48 46 47 45 40 39 36 41 35 33 33 31 30 30 28 29 30 32 32 34 36 27 20 16
26 22 24 33 36 39 41 37 42 48 46 47 43 42 40 39 34 35 33 31 30 29 28 27 28 32 33 32 34 36 33 26
26 24 23 26 33 39 42 44 42 47 48 47 47 42 41 38 35 35 32 29 29 26 29 29 29 29 29 29 30 30 34 31
25 27 24 21 25 35 36 40 41 42 44 44 45 42 40 37 36 33 30 29 29 30 30 30 27 27 28 28 29 30 30 32
Wind_Direction
189 192 193 198 202 202 202 204 207 207 206 206 207 206 203 203 204 205 204 203 203 204 201 200 203 203 201 201 196 201 198 192
193 195 197 200 202 203 204 204 209 209 210 210 211 210 208 208 209 211 210 208 206 205 205 201 200 203 205 206 202 204 198 196
200 198 201 204 204 203 202 204 208 209 210 211 212 214 212 213 215 216 213 209 209 208 205 204 201 210 208 207 208 211 202 202
207 207 209 208 208 205 206 205 207 210 210 213 214 218 216 218 219 218 217 213 212 209 209 207 209 211 208 210 215 217 208 206
217 218 219 218 215 213 213 212 210 210 212 215 218 218 218 218 220 218 217 214 215 210 208 209 215 215 212 217 219 216 213 208
223 225 226 225 223 223 222 221 219 217 217 218 218 217 218 219 221 223 222 219 217 217 212 214 213 213 218 226 228 218 221 217
237 234 231 231 230 229 228 228 229 225 220 222 219 218 220 221 222 225 226 224 223 223 220 216 213 217 219 226 228 219 225 221
257 254 245 237 235 235 235 237 239 235 225 225 227 224 223 223 225 226 228 228 229 228 229 222 214 221 226 227 233 225 232 231
247 249 251 249 239 237 239 242 245 240 234 229 228 228 225 224 227 229 230 230 230 231 232 228 221 227 226 223 222 220 263 244
249 249 246 247 247 241 240 242 243 240 238 233 229 229 227 224 227 230 231 232 230 232 233 233 228 221 226 226 218 238 252 238
268 258 251 242 245 243 241 241 242 240 238 236 231 230 228 222 226 229 229 231 231 233 235 234 226 218 222 234 228 230 234 208
277 267 254 251 244 245 237 237 239 241 238 237 232 230 228 225 224 226 230 231 231 232 233 235 232 222 225 238 238 239 222 222
276 271 257 253 239 238 236 232 234 239 236 235 232 230 227 226 225 227 227 231 234 233 232 235 235 231 234 238 243 236 224 234
271 261 259 254 242 237 237 231 231 235 234 230 230 229 228 228 228 228 228 228 232 234 231 231 233 235 230 221 213 225 241 229
272 259 242 249 247 236 234 232 232 229 232 229 227 227 229 231 232 233 231 231 232 233 230 229 231 229 228 217 204 220 224 237
287 267 251 233 240 234 230 228 227 228 235 234 225 224 231 230 232 233 232 231 233 233 232 233 235 229 221 227 220 229 203 219
306 282 257 233 232 232 234 234 233 231 225 232 224 222 227 231 231 231 233 230 233 234 233 232 235 231 229 221 223 223 227 222
313 298 265 245 228 231 233 232 232 231 226 224 221 223 224 230 229 229 234 229 231 230 235 235 235 238 236 228 229 227 232 229
312 311 280 242 228 235 233 232 231 233 230 227 221 222 223 226 230 227 230 227 227 231 233 235 236 239 239 240 237 245 241 240
323 314 295 248 232 236 231 230 233 234 233 231 225 224 226 229 228 225 225 225 227 231 233 237 240 245 247 247 250 250 246 250